Regional Weather Roundup
Issued by NWS

Home | Current Version | Previous Version | Text Only | Print | Product List | Glossary On
Versions: 1 2 3 4 5 6 7 8 9 10 11 12 13 14 15 16 17 18 19 20 21 22 23 24 25 26 27 28 29 30 31 32 33 34 35 36 37 38 39 40 41 42 43 44 45 46 47 48 49 50
000
ASCA44 KEWX 240120
RWRMX

LATIN AMERICA AND CARIBBEAN REGIONAL WEATHER ROUNDUP
NATIONAL WEATHER SERVICE AUSTIN/SAN ANTONIO TX
800 PM CDT TUE AUG 23 2016

NOTE: "FAIR" INDICATED FEW OR NO CLOUDS BELOW 12,000 FEET WITH NO
SIGNIFICANT WEATHER AND/OR OBSTRUCTIONS TO VISIBILITY.

BAJA CALIFORNIA

CITY           SKY/WX    TMP DP  RH WIND       PRES   REMARKS
LORETO         PTSUNNY   91  73  55 SE12      29.87S HX 100
LA PAZ         MOCLDY    84  70  61 S14       29.94
MEXICALI       SUNNY    104  41  11 NW6       29.82  HX  99
S.J. DEL CABO  LGT RAIN  75  72  88 W6        29.97S
TIJUANA        SUNNY     73  55  53 NW9       30.02S

NORTHWESTERN MEXICO

CITY           SKY/WX    TMP DP  RH WIND       PRES   REMARKS
CULIACAN       MOCLDY    84  75  74 CALM      29.91  HX  92
DURANGO        MOCLDY    68  59  73 NE2       30.29
GUAYMAS        MOSUNNY   90  81  74 S12       29.85  HX 108
HERMOSILLO     MOSUNNY   97  75  49 SW12      29.89F HX 109
CD. JUAREZ     MOCLDY    82  59  44 E9G21     30.01
LOS MOCHIS     CLOUDY    82  72  69 SW6       29.92F
OBREGON        PTCLDY    90  72  55 S6        29.89  HX  96

NORTHEASTERN MEXICO

CITY           SKY/WX    TMP DP  RH WIND       PRES   REMARKS
CHIHUAHUA      CLOUDY    73  66  78 CALM      30.17
MATAMOROS      PTCLDY    86  75  70 SE13      30.07  HX  95
MONCLOVA         N/A    N/A N/A N/A MISG        N/A
MONTERREY      PTCLDY    90  61  37 SE9       30.01R
NUEVO LAREDO   CLEAR     93  66  40 SE14      29.99  HX  96
PIEDRAS NEGRAS   N/A    N/A N/A N/A MISG        N/A
REYNOSA        PTCLDY    86  68  54 SE17      30.05
SALTILLO       CLEAR     75  57  53 N17       30.24S
TORREON        PTCLDY    88  59  37 N7        30.07F
CD. VICTORIA   LGT RAIN  75  75 100 SE9       30.13

WESTERN MEXICO

CITY           SKY/WX    TMP DP  RH WIND       PRES   REMARKS
AGUASCALIENTES MOCLDY    72  52  49 W6        30.29
COLIMA         MOCLDY    72  70  94 W9        30.10R FOG
DEL BAJIO      MOCLDY    75  54  46 E8        30.30R
GUADALAJARA    CLOUDY    66  59  77 W6        30.22
MANZANILLO     RAIN      82  79  89 NE12      29.94R HX  93
MAZATLAN       PTCLDY    88  77  70 NW6       29.89S HX 100
P. VALLARTA    MOCLDY    81  75  83 N6        29.93S
URUAPAN          N/A    N/A N/A N/A MISG        N/A
ZACATECAS      PTCLDY    68  48  49 E7        30.33R

CENTRAL MEXICO

CITY           SKY/WX    TMP DP  RH WIND       PRES   REMARKS
CUERNAVACA     TSTM      63  61  94 N9        30.20R
MEXICO CITY    TSTM      61  55  82 N10       30.38R
MORELIA        TSTM      61  59  94 W8        30.30
POZA RICA      CLOUDY    73  72  94 N7        30.10S
PUEBLA         CLOUDY    57  54  88 NW7       30.41R
QUERETARO      MOCLDY    70  55  60 NE12      30.34R
S. LUIS POTOSI MOCLDY    66  52  59 NE16      30.33R
TAMPICO          N/A    N/A N/A N/A MISG        N/A
TOLUCA         TSTM      57  52  82 W7        30.47R

SOUTHERN MEXICO

CITY           SKY/WX    TMP DP  RH WIND       PRES   REMARKS
ACAPULCO       CLOUDY    84  75  74 W3        29.93R HX  92
B. DE HUATULCO   N/A    N/A N/A N/A MISG        N/A
OAXACA         CLOUDY    68  59  73 N6        30.29R
P. ESCONDIDO     N/A    N/A N/A N/A MISG        N/A
VERACRUZ       CLOUDY    77  73  88 NE3       30.04R
ZIHUATANEJO    MOCLDY    82  75  78 CALM      29.95R

YUCATAN PENINSULA

CITY           SKY/WX    TMP DP  RH WIND       PRES   REMARKS
CAMPECHE       PTCLDY    86  81  84 N12       29.98S HX 102
CANCUN         PTCLDY    82  79  89 NE3       30.06R HX  93
CHETUMAL       PTCLDY    86  75  70 E5        30.04  HX  95
CD. DEL CARMEN CLOUDY    86  79  79 NE9       30.00  THUNDER HX  99
COZUMEL        PTCLDY    79  77  94 NE5       30.05S
MERIDA         PTCLDY    84  77  79 NE9       30.03R HX  94
MINATITLAN     TSTM      81  70  69 N12       29.96
TAPACHULA      PTCLDY    86  79  79 CALM      29.86R HX  99
TUX. GUTIERREZ CLOUDY    81  68  65 SE12      30.01
VILLAHERMOSA   MOCLDY    84  70  61 E8        30.00R

CENTRAL AMERICA

CITY           SKY/WX    TMP DP  RH WIND       PRES   REMARKS
BELIZE CITY    PTCLDY    84  79  84 NE7       30.05R HX  96
MANAGUA        PTCLDY    79  72  78 E5        29.86R

CARIBBEAN

CITY           SKY/WX    TMP DP  RH WIND       PRES   REMARKS
ARUBA          PTCLDY    84  77  79 E17       29.86R HX  94
CURACAO        PTCLDY    82  77  83 E15       29.89  HX  91
KINGSTON       PTCLDY    86  77  74 W8        29.92S HX  97
NASSAU         PTCLDY    81  75  83 N7        30.05S
SAN JUAN       PTCLDY    84  73  70 NE9       29.95R HX  91
SANTO DOMINGO  PTCLDY    77  75  94 CALM      29.94R
ST. CROIX      PTCLDY    82  77  83 N6        29.93S HX  91
ST. KITTS      PTCLDY    82  77  83 N10       29.92R HX  91
ST. MAARTEN    PTCLDY    84  77  79 NE12      29.92R HX  94
ST. THOMAS     MOCLDY    81  79  94 N10G21    29.92

$$




USA.gov is the U.S. government's official web portal to all federal, state and local government web resources and services.